Location: Newark
(58.8333°N, 23.5833°E)
Time: 16:23:58
(UTC+00:00)

S-56A Canister/Altair - Pass Details

Date: 01 December 2019
Orbit: 633 x 2499 km, 38.9° (Epoch: 06 December)

Event Time Altitude Azimuth Distance (km) Brightness Sun altitude
Rises 17:05:39 0° 265° (W) 5,398 13.2 -25.1°
Reaches altitude 10° 17:14:02 10° 230° (SW) 3,776 11.7 -26.2°
Maximum altitude 17:15:09 10° 224° (SW) 3,665 11.5 -26.3°
Drops below altitude 10° 17:16:13 10° 217° (SW) 3,594 11.3 -26.5°
Sets 17:22:38 0° 178° (S) 4,003 11.2 -27.3°
